Location: Rimouski
(48.4330°N, 68.5170°W)
Time: 00:06:08
(UTC-05:00)

Daily predictions for brighter satellites

Satellite Brightness Start Highest point End
(mag) Time Altitude Azimuth Time Altitude Azimuth Time Altitude Azimuth
Cosmos 2278 Rocket 4.5 02:15:53 18° NNE 02:15:53 18° NNE 02:17:22 10° NNE
CZ-2D R/B 4.5 02:19:04 10° NNE 02:20:20 18° NNE 02:20:20 18° NNE
Resurs 1-4 Rocket 4.4 02:25:05 10° NNE 02:26:17 17° NNE 02:26:17 17° NNE
ADEOS Rocket 4.1 02:23:49 10° NNE 02:28:39 45° NE 02:28:39 45° NE
ATLAS 5 CENTAUR R/B 4.1 02:59:01 17° ESE 02:59:14 17° ESE 03:02:30 10° ENE
CZ-4B R/B 4.4 02:55:40 10° NNE 03:00:53 38° E 03:01:30 37° ESE
Cosmos 1943 Rocket 4.3 03:04:38 15° SE 03:07:19 21° E 03:11:21 10° NE
Okean O Rocket 3.6 03:11:30 10° NNE 03:13:26 25° NNE 03:13:26 25° NNE
PAYLOAD B 4.4 03:22:13 10° NNE 03:27:45 66° ESE 03:28:03 65° ESE
Cosmos 2266 Rocket 4.0 03:23:02 10° N 03:29:15 78° E 03:35:19 10° SSE
Cosmos 2279 Rocket 4.4 03:38:28 49° NNW 03:38:28 49° NNW 03:43:20 10° N
MOS 1 Rocket 3.8 03:32:26 10° N 03:37:02 63° N 03:37:02 63° N
CZ-4B DEB 4.2 03:36:52 10° NNE 03:42:26 78° ESE 03:43:21 62° S
Iridium 4 Rocket 4.3 03:40:16 10° N 03:44:13 45° NNW 03:44:13 45° NNW
ADEOS II 2.0 03:46:46 10° NNE 03:52:05 88° ESE 03:52:50 67° S
Lacrosse 4 Rocket 3.9 03:54:22 12° N 03:54:22 12° N 03:54:53 10° N
Thor Agena Rocket 3.9 03:52:00 10° SSE 03:57:11 66° ENE 04:02:19 10° N
Cosmos 2278 Rocket 4.2 03:57:43 14° NNW 03:57:43 14° NNW 04:00:19 10° N
IRAS Rocket 4.0 03:52:16 10° NNE 03:57:44 71° WNW 03:58:08 68° WSW
ATLAS CENTAUR R/B 3.6 03:57:39 45° SW 03:57:45 46° SW 04:09:49 10° SSE
Cosmos 1371 Rocket 3.9 03:57:25 65° S 03:58:12 85° ESE 04:03:25 10° NNE
Cosmos 2369 Rocket 2.1 03:58:18 62° SW 03:59:19 85° WNW 04:05:02 10° NNE
Sich 1 Rocket 3.8 03:55:21 10° N 03:59:55 72° ENE 04:04:25 10° SSE
CZ-2D R/B 4.2 04:00:28 10° NNW 04:01:39 14° NNW 04:01:39 14° NNW
USA 234 3.4 03:57:37 10° ENE 04:04:08 69° SE 04:07:05 35° SW
CZ-4C R/B 4.3 04:01:56 10° SSE 04:06:09 24° ESE 04:10:45 10° ENE
Cosmos 1908 Rocket 3.6 04:03:01 10° N 04:07:32 81° E 04:12:01 10° SSE
Okean-O 3.2 04:03:41 10° NNE 04:08:05 57° E 04:11:37 15° S
Resurs 1-4 Rocket 4.3 04:06:31 10° NNW 04:07:22 12° NNW 04:07:22 12° NNW
PSLV R/B 4.0 04:07:04 10° N 04:10:15 46° NNW 04:10:15 46° NNW
Cosmos 1782 Rocket 4.2 04:08:27 10° N 04:12:53 56° ENE 04:17:16 10° SSE
Cosmos 1933 3.3 04:14:59 72° NNW 04:14:59 72° NNW 04:18:47 10° N
Cosmos 1833 4.0 04:10:28 15° NNW 04:15:09 77° WSW 04:20:44 10° SSE
ADEOS Rocket 4.2 04:09:56 10° N 04:15:37 28° NW 04:15:37 28° NW
Meteor PRIRODA 3.7 04:14:03 10° NNE 04:17:21 70° N 04:17:21 70° N
Cosmos 921 Rocket 3.4 04:22:07 45° NW 04:22:07 45° NW 04:25:47 10° N
Lacrosse 5 2.6 04:21:27 25° SSW 04:24:09 49° SE 04:29:03 10° ENE
Cosmos 407 Rocket 3.5 04:21:21 10° NNW 04:26:36 56° WSW 04:31:48 10° S
Lacrosse 5 rocket 2.6 04:25:35 23° NNW 04:26:39 27° NNE 04:29:46 10° ENE
SKYMED 2 4.0 04:23:10 10° SSE 04:27:27 62° ENE 04:31:45 10° N
Cosmos 676 Rocket 3.9 04:23:46 10° NNW 04:29:05 74° WSW 04:34:23 10° SSE
Okean 2 Rocket 3.4 04:28:08 10° N 04:32:32 66° E 04:36:54 10° SSE
Cosmos 546 4.5 04:34:44 56° WNW 04:35:29 89° SSW 04:39:19 10° ESE
Meteor 1-14 Rocket 4.2 04:34:06 10° NNW 04:40:01 81° W 04:45:44 10° S
S3M 4.4 04:34:50 10° S 04:41:06 66° E 04:47:20 10° NNE
CZ-4B R/B 3.7 04:36:18 10° N 04:41:26 39° WNW 04:43:24 29° WSW
ERS-2 3.1 04:38:43 10° N 04:41:25 31° NW 04:41:25 31° NW
Cosmos 2263 4.2 04:39:27 28° SW 04:42:21 58° WNW 04:47:54 10° NNE
Cosmos 1862 Rocket 4.2 04:42:53 34° WNW 04:42:53 34° WNW 04:46:39 10° N
ATLAS 5 CENTAUR R/B 1.8 04:40:35 29° SW 04:43:09 80° NW 04:48:30 10° NE
Cosmos 1867 3.9 04:42:02 32° W 04:44:05 47° NW 04:49:24 10° NNE
Cosmos 1553 Rocket 4.1 04:43:27 10° S 04:49:37 78° E 04:55:57 10° NNE
Cosmos 1943 Rocket 2.1 04:46:13 17° SW 04:50:30 68° WNW 04:56:04 10° NNE
Cosmos 1140 Rocket 3.4 04:45:21 10° NNW 04:50:35 78° WSW 04:55:49 10° SSE
Cosmos 1703 Rocket 3.4 04:46:35 10° SSW 04:50:53 68° W 04:55:15 10° N
Okean O Rocket 3.2 04:48:45 10° NNW 04:50:54 18° NW 04:50:54 18° NW
Cosmos 1782 4.1 04:48:17 10° SSE 04:52:01 42° E 04:55:48 10° NNE
Meteor 2-10 Rocket 3.3 04:48:04 10° SSW 04:53:04 75° WNW 04:58:09 10° N
Meteor 1-28 Rocket 3.1 04:52:48 10° SSE 04:56:31 88° ENE 05:00:18 10° NNW
Cosmos 972 4.4 04:54:47 10° SSW 04:59:39 64° WNW 05:04:54 10° NNE
Cosmos 614 Rocket 3.8 04:56:55 10° NNW 05:02:01 80° WSW 05:07:08 10° SSE
BREEZE M DEB (TANK) 3.9 04:52:58 18° WSW 05:03:37 88° NNW 05:07:59 10° ENE
Meteor 1-26 Rocket 4.3 05:03:04 10° SSW 05:08:39 57° WNW 05:14:11 10° N
IDEFIX/ARIANE 42P 4.4 05:05:42 10° NNE 05:10:28 35° E 05:15:12 10° SSE
Cosmos 1850 Rocket 4.0 05:05:40 10° NNW 05:11:03 80° WSW 05:16:22 10° SSE
Cosmos 2056 Rocket 4.2 05:09:10 18° WSW 05:12:22 34° WNW 05:17:07 10° N
Meteor 1-25 Rocket 4.3 05:08:16 10° NNW 05:14:01 62° W 05:19:45 10° S
Cosmos 2221 Rocket 3.8 05:09:50 10° SSW 05:14:17 51° WNW 05:18:45 10° N
COSMO-SKYMED 1 2.9 05:11:25 10° S 05:15:33 43° W 05:19:43 10° NNW
CZ-4 R/B 3.7 05:12:21 10° NNE 05:16:04 30° E 05:19:43 10° SSE
Cosmos 1709 Rocket 4.5 05:10:25 10° N 05:16:30 64° ENE 05:22:34 10° SSE
Cosmos 1606 3.3 05:13:48 10° S 05:17:37 62° E 05:21:30 10° NNE
CZ-2C R/B 4.1 05:13:12 10° NNE 05:17:42 37° E 05:22:20 10° SSE
NOAA 6 4.1 05:14:03 10° N 05:19:07 55° WNW 05:24:07 10° SW
Meteor 1-31 Rocket 3.8 05:17:14 10° N 05:20:30 25° WNW 05:23:12 13° WSW
Cosmos 2297 Rocket 3.3 05:16:36 10° NNW 05:22:03 46° NE 05:27:28 10° SE
Ariane Rocket 3.2 05:19:12 10° NNE 05:24:20 79° ESE 05:29:25 10° SSW
Meteor 1-11 Rocket 4.2 05:23:40 10° N 05:29:41 72° ENE 05:35:34 10° SSE
Cosmos 1420 Rocket 3.9 05:24:58 10° SSW 05:30:09 79° WNW 05:35:23 10° NNE
Abrixas 2.3 05:28:55 16° W 05:31:03 86° S 05:33:58 10° E
ADEOS II 3.6 05:27:50 10° NNW 05:31:07 17° NW 05:33:48 12° W
Cosmos 2219 3.5 05:27:51 10° NW 05:33:15 45° WSW 05:38:35 10° S
Cosmos 1745 Rocket 4.2 05:28:46 10° NNW 05:34:40 48° W 05:40:30 10° SSW
Meteor 1-10 Rocket 4.2 05:30:50 10° SSW 05:36:24 84° W 05:42:06 10° N
Cosmos 2227 Rocket 2.4 05:36:07 10° NNW 05:41:50 77° ENE 05:47:31 10° SSE
Okean-O 4.0 05:41:04 10° NNW 05:44:11 19° WNW 05:47:18 10° WSW
Cosmos 2369 Rocket 3.6 05:40:08 10° W 05:44:12 20° NW 05:48:22 10° N
YAOGAN 1 4.1 05:41:00 10° NNE 05:45:08 41° E 05:49:13 10° S
Tiangong 1 3.0 05:44:41 10° SW 05:47:01 22° SSE 05:49:24 10° ESE
USA 234 3.5 05:40:44 10° NE 05:47:05 56° NNW 05:53:25 10° W
Okean 1-7 3.9 05:44:48 10° SW 05:48:27 27° WNW 05:52:06 10° NNW
Cosmos 1452 Rocket 4.2 05:48:59 10° WSW 05:53:49 35° WNW 05:58:41 10° N
CZ-4C R/B 2.3 05:48:34 10° SW 05:53:59 70° NW 06:00:14 10° NE
